Waarnemingen

Advertentie
Mijn weer
Jerez De La Frontera aeropuert, Spanje (8451): temperatuur & dauwpunt: 09.11.2018 20:00:00 - 15.11.2018 20:00:00 (CET)Jerez De La Frontera aeropuert, Spanje (8451): windsnelheid: 09.11.2018 20:00:00 - 15.11.2018 20:00:00 (CET)Jerez De La Frontera aeropuert, Spanje (8451): windrichting: 09.11.2018 20:00:00 - 15.11.2018 20:00:00 (CET)Jerez De La Frontera aeropuert, Spanje (8451): luchtdruk: 09.11.2018 20:00:00 - 15.11.2018 20:00:00 (CET)Jerez De La Frontera aeropuert, Spanje (8451): zicht: 09.11.2018 20:00:00 - 15.11.2018 20:00:00 (CET)
Datum & Tijd tt [°C] td [°C] ff [km/u] ff [kn] dd ppp [hPa] vv [km]
15.11.2018 20:00:00 15,0 13,2 4 2 - 1015,3 10
15.11.2018 19:00:00 17,0 13,8 5 3 ONO 1014,9 10
15.11.2018 18:00:00 18,8 14,5 8 4 ZZO 1015,0 10
15.11.2018 17:00:00 21,3 14,8 13 7 NO 1014,5 10
15.11.2018 16:00:00 23,7 13,9 9 5 ZZW 1014,3 10
15.11.2018 15:00:00 22,1 12,7 8 4 Z 1014,4 10
15.11.2018 14:00:00 22,1 14,2 2 1 - 1014,7 10
15.11.2018 13:00:00 21,0 14,0 4 2 - - 10
15.11.2018 12:00:00 20,1 14,5 5 3 OZO 1015,7 10
15.11.2018 11:00:00 18,6 14,7 2 1 - 1015,7 10
15.11.2018 10:00:00 15,9 14,1 0 0 N 1015,4 10
15.11.2018 09:00:00 11,3 11,1 2 1 - 1014,9 10
15.11.2018 08:00:00 10,1 9,8 5 3 N 1014,2 10
15.11.2018 07:00:00 10,0 9,7 4 2 NO 1013,4 10
15.11.2018 06:00:00 10,7 10,4 2 1 ZO 1013,4 10
15.11.2018 05:00:00 11,6 11,0 2 1 - 1013,1 10
15.11.2018 04:00:00 12,4 11,6 5 3 NW 1013,2 10
15.11.2018 03:00:00 12,5 11,6 0 0 N 1013,3 10
15.11.2018 02:00:00 12,2 11,4 0 0 N 1013,1 10
15.11.2018 01:00:00 12,2 11,3 2 1 - 1013,8 10
15.11.2018 00:00:00 12,8 11,8 5 3 WNW 1014,2 10
14.11.2018 23:00:00 14,0 11,7 2 1 - 1014,5 10
14.11.2018 22:00:00 15,8 12,5 8 4 O 1014,7 10
14.11.2018 21:00:00 16,5 12,9 4 2 - 1015,1 10
14.11.2018 20:00:00 15,9 12,7 5 3 Z 1015,0 10
14.11.2018 19:00:00 17,9 13,5 9 5 OZO 1014,8 10
14.11.2018 18:00:00 20,1 14,2 8 4 Z 1014,5 10
14.11.2018 17:00:00 22,2 14,8 8 4 ZO 1014,7 10
14.11.2018 16:00:00 23,0 14,7 8 4 NO 1014,6 10
14.11.2018 15:00:00 21,4 15,6 9 5 NO 1014,9 10
14.11.2018 14:00:00 21,5 15,0 11 6 ONO 1015,4 10
14.11.2018 13:00:00 20,8 14,1 15 8 O 1016,1 10
14.11.2018 12:00:00 20,4 14,3 9 5 OZO 1017,3 10
14.11.2018 11:00:00 18,3 14,6 5 3 O 1017,7 10
14.11.2018 10:00:00 15,9 13,6 8 4 O 1017,9 10
14.11.2018 09:00:00 14,3 12,8 8 4 NO 1018,0 10
14.11.2018 08:00:00 13,4 12,0 2 1 - 1017,8 10
14.11.2018 07:00:00 13,8 12,0 5 3 OZO 1017,7 10
14.11.2018 06:00:00 14,6 12,8 9 5 O 1017,9 10
14.11.2018 05:00:00 14,4 13,6 11 6 N 1018,1 10
14.11.2018 04:00:00 14,1 13,5 5 3 NNO 1018,9 10
14.11.2018 03:00:00 14,2 13,2 4 2 - 1019,3 10
14.11.2018 02:00:00 14,6 13,0 4 2 - 1019,7 10
14.11.2018 01:00:00 14,0 13,2 5 3 NO 1020,2 10
14.11.2018 00:00:00 14,1 13,6 4 2 - 1020,5 10
13.11.2018 23:00:00 14,7 13,9 2 1 N 1020,5 10
13.11.2018 22:00:00 15,3 14,3 0 0 N 1020,2 10
13.11.2018 21:00:00 15,5 14,0 0 0 N 1020,3 10
13.11.2018 20:00:00 15,8 14,2 8 4 ONO 1020,4 10
13.11.2018 19:00:00 16,6 14,6 5 3 NNO 1020,2 10
13.11.2018 18:00:00 17,8 14,9 5 3 N 1020,1 10
13.11.2018 17:00:00 18,6 14,3 9 5 NNW 1019,7 10
13.11.2018 16:00:00 18,9 14,4 15 8 NNW 1019,3 10
13.11.2018 15:00:00 19,6 14,9 11 6 NNW 1019,4 10
13.11.2018 14:00:00 19,8 14,8 9 5 NNW 1019,7 10
13.11.2018 13:00:00 19,2 13,8 4 2 - 1020,2 10
13.11.2018 12:00:00 16,7 13,8 2 1 - 1021,1 9
13.11.2018 11:00:00 14,0 13,8 2 1 - 1021,1 4,0
13.11.2018 10:00:00 12,5 12,5 4 2 - 1020,8 0,4
13.11.2018 09:00:00 12,1 12,1 4 2 - 1020,4 0,3
13.11.2018 08:00:00 12,1 12,1 5 3 NNW 1020,0 0,8
13.11.2018 07:00:00 12,3 12,1 2 1 - 1019,4 6
13.11.2018 06:00:00 12,7 12,5 13 7 N 1019,0 6
13.11.2018 05:00:00 12,9 12,7 11 6 N 1019,1 10
13.11.2018 04:00:00 12,7 12,5 11 6 NNW 1019,4 10
13.11.2018 03:00:00 12,9 12,7 4 2 W 1019,4 10
13.11.2018 02:00:00 12,8 12,6 0 0 N 1019,5 10
13.11.2018 01:00:00 13,2 12,9 5 3 O 1019,6 10
13.11.2018 00:00:00 12,8 12,4 4 2 NNW 1019,4 10
12.11.2018 23:00:00 14,1 13,3 0 0 N 1019,3 10
12.11.2018 22:00:00 14,6 13,3 5 3 WNW 1019,0 10
12.11.2018 21:00:00 14,6 13,6 8 4 ONO 1018,4 10
12.11.2018 20:00:00 14,3 13,7 5 3 NW 1018,4 10
12.11.2018 19:00:00 14,7 13,6 9 5 NNW 1017,6 10
12.11.2018 18:00:00 15,6 13,8 9 5 NW 1016,7 10
12.11.2018 17:00:00 16,6 13,8 13 7 W 1016,1 10
12.11.2018 16:00:00 17,9 14,6 8 4 WZW 1015,4 10
12.11.2018 15:00:00 17,3 14,4 8 4 OZO 1014,9 10
12.11.2018 14:00:00 16,7 14,3 4 2 - 1015,4 10
12.11.2018 13:00:00 16,4 14,6 4 2 - 1016,0 10
12.11.2018 12:00:00 15,4 14,2 5 3 OZO 1016,5 10
12.11.2018 11:00:00 14,7 13,4 11 6 ZO 1016,1 6
12.11.2018 10:00:00 14,1 13,6 9 5 ZO 1015,6 7
12.11.2018 09:00:00 14,3 14,0 9 5 ZZO 1014,9 3,0
12.11.2018 08:00:00 14,7 14,7 5 3 ZZW 1014,3 4,0
12.11.2018 07:00:00 14,6 14,5 5 3 ZZO 1012,9 4,0
12.11.2018 06:00:00 15,0 14,0 13 7 ZZO 1012,3 7
12.11.2018 05:00:00 14,7 14,2 11 6 ZO 1012,3 4,0
12.11.2018 04:00:00 14,4 13,6 9 5 OZO 1012,5 10
12.11.2018 03:00:00 14,5 14,0 5 3 ZO 1013,2 10
12.11.2018 02:00:00 13,8 13,5 8 4 ZO 1013,1 10
12.11.2018 01:00:00 13,5 13,2 4 2 - 1013,7 10
12.11.2018 00:00:00 13,2 13,1 5 3 ZO 1013,6 10
11.11.2018 23:00:00 12,6 12,3 4 2 - 1013,9 10
11.11.2018 22:00:00 13,9 13,3 4 2 - 1013,7 10
11.11.2018 21:00:00 14,7 13,9 5 3 Z 1013,7 10
11.11.2018 20:00:00 15,5 14,4 8 4 ZZO 1013,2 10
11.11.2018 19:00:00 16,6 14,6 11 6 ZW 1013,2 10
11.11.2018 18:00:00 18,4 15,0 18 10 ZZW 1012,6 10
11.11.2018 17:00:00 20,0 15,4 22 12 ZW 1013,0 10
11.11.2018 16:00:00 22,2 16,0 22 12 WZW 1012,8 10
11.11.2018 15:00:00 23,2 15,1 9 5 Z 1012,7 10
11.11.2018 14:00:00 22,7 15,3 8 4 Z 1013,6 10
11.11.2018 13:00:00 21,9 15,4 8 4 - 1014,8 10
11.11.2018 12:00:00 21,0 15,5 9 5 Z 1016,2 10
11.11.2018 11:00:00 20,3 15,9 5 3 Z 1016,7 10
11.11.2018 10:00:00 18,0 16,5 2 1 - 1017,3 10
11.11.2018 09:00:00 15,0 14,8 4 2 - 1017,4 10
11.11.2018 08:00:00 14,9 14,6 5 3 OZO 1017,0 10
11.11.2018 07:00:00 15,5 15,2 4 2 ONO 1017,1 15
11.11.2018 06:00:00 15,6 15,3 0 0 N 1017,2 10
11.11.2018 05:00:00 15,9 15,4 2 1 Z 1017,2 10
11.11.2018 04:00:00 16,0 15,4 8 4 ZO 1017,6 10
11.11.2018 03:00:00 15,8 15,3 4 2 - 1018,0 10
11.11.2018 02:00:00 15,9 15,1 0 0 N 1018,6 10
11.11.2018 01:00:00 16,1 14,9 2 1 - 1019,1 10
11.11.2018 00:00:00 15,8 14,9 2 1 O 1019,3 10
10.11.2018 23:00:00 16,0 14,7 5 3 Z 1019,6 10
10.11.2018 22:00:00 16,4 15,1 5 3 ZO 1019,5 10
10.11.2018 21:00:00 16,5 14,9 4 2 - 1019,5 10
10.11.2018 20:00:00 16,8 14,6 9 5 ZZW 1019,4 10
10.11.2018 19:00:00 17,2 14,3 9 5 ZZW 1019,2 10
10.11.2018 18:00:00 18,2 14,3 13 7 WZW 1019,1 10
10.11.2018 17:00:00 18,9 14,4 11 6 WZW 1019,0 10
10.11.2018 16:00:00 19,0 14,3 18 10 ZW 1019,0 10
10.11.2018 15:00:00 19,6 14,3 21 11 ZW 1019,0 10
10.11.2018 14:00:00 19,1 14,0 15 8 WZW 1019,5 10
10.11.2018 13:00:00 18,5 14,5 5 3 ZW 1020,5 10
10.11.2018 12:00:00 16,6 13,3 2 1 - 1021,5 10
10.11.2018 11:00:00 15,3 12,9 2 1 - 1021,5 10
10.11.2018 10:00:00 13,7 12,3 2 1 - 1021,4 10
10.11.2018 09:00:00 11,4 10,5 5 3 ONO 1021,0 10
10.11.2018 08:00:00 10,5 9,9 8 4 O 1021,2 10
10.11.2018 07:00:00 10,0 9,4 5 3 O 1021,1 10
10.11.2018 06:00:00 9,6 9,3 5 3 ONO 1021,2 10
10.11.2018 05:00:00 8,9 8,6 5 3 ONO 1021,6 10
10.11.2018 04:00:00 8,3 8,0 5 3 NO 1021,6 10
10.11.2018 03:00:00 9,2 8,9 4 2 O 1022,1 10
10.11.2018 02:00:00 8,6 8,2 4 2 - 1022,4 10
10.11.2018 01:00:00 9,4 8,9 8 4 O 1022,5 10
10.11.2018 00:00:00 9,4 8,8 4 2 NO 1023,3 10
09.11.2018 23:00:00 9,8 9,1 5 3 ONO 1023,6 10
09.11.2018 22:00:00 10,6 9,5 2 1 O 1023,9 10
09.11.2018 21:00:00 11,5 9,9 2 1 - 1023,6 10
09.11.2018 20:00:00 12,5 10,2 4 2 - 1023,7 10

tt = temperatuur
td = dauwpunt
ff = windsnelheid
dd = windrichting
ppp = luchtdruk
vv = zicht

Weerstations in de omgeving